Change the Weather History Date:

Saturday, August 30, 2014

  Actual Average Record
Temperature  
Mean Temperature 78 °F -  
Max Temperature 84 °F 74 °F 111 °F (1999)
Min Temperature 72 °F 61 °F 64 °F (1997)
Cooling Degree Days 13    
Growing Degree Days 28 (Base 50)    
Moisture  
Dew Point 60 °F    
Average Humidity 57    
Maximum Humidity 69    
Minimum Humidity 44    
Precipitation  
Precipitation 0.00 in - - ()
Sea Level Pressure  
Sea Level Pressure 30.02 in    
Wind  
Wind Speed 14 mph ()    
Max Wind Speed 23 mph    
Max Gust Speed 31 mph    
Visibility 6.3 miles    
Events      
Averages and records for this station are not official NWS values.
T = Trace of Precipitation, MM = Missing Value Source: Averaged Metar Reports

Daily Weather History Graph

Daily Weather History Graph

Search for Another Location

Airport or City:

Trip Planner

Search our weather history database for the weather conditions in past years. The results will help you decide how hot, cold, wet, or windy it might be!

Date:

Astronomy

Aug. 30, 2014 Rise Set
Actual Time 6:29 AM EEST 7:40 PM EEST
Civil Twilight 6:00 AM EEST 8:09 PM EEST
Nautical Twilight 5:26 AM EEST 8:43 PM EEST
Astronomical Twilight 4:51 AM EEST 9:18 PM EEST
Moon 10:59 AM EEST (8/30) 10:00 PM EEST (8/30)
Length of Visible Light 14h 08m
Length of Day
13h 11m
Waxing Crescent, 20% of the Moon is Illuminated
Aug 30
Waxing Crescent
Sep 2
First Quarter
Sep 9
Full
Sep 16
Last Quarter
Sep 24
New

Hourly Weather History & Observations

Time (EEST) Temp. Heat Index Dew Point Humidity Pressure Visibility Wind Dir Wind Speed Gust Speed Precip Events Conditions
12:00 AM 73 °F - 57 °F 47% 30.08 in 6 mi ENE 12.7 mph - -   Partly Cloudy
12:20 AM 73.4 °F - 55.4 °F 53% 30.06 in 6.2 mi NE 12.7 mph - N/A   Scattered Clouds
12:50 AM 73.4 °F - 55.4 °F 53% 30.06 in 6.2 mi NE 12.7 mph - N/A   Partly Cloudy
1:20 AM 73.4 °F - 55.4 °F 53% 30.06 in 6.2 mi NNE 15.0 mph - N/A   Partly Cloudy
1:50 AM 73.4 °F - 57.2 °F 57% 30.06 in 6.2 mi NE 11.5 mph - N/A   Scattered Clouds
2:20 AM 73.4 °F - 57.2 °F 57% 30.06 in 6.2 mi NE 16.1 mph - N/A   Scattered Clouds
2:50 AM 73.4 °F - 57.2 °F 57% 30.04 in 6.2 mi NE 17.3 mph - N/A   Scattered Clouds
3:00 AM 74 °F - 58 °F 47% 30.05 in 6 mi NE 17.3 mph - -   Partly Cloudy
3:20 AM 73.4 °F - 57.2 °F 57% 30.04 in 6.2 mi NE 15.0 mph - N/A   Scattered Clouds
3:50 AM 73.4 °F - 57.2 °F 57% 30.04 in 6.2 mi NE 16.1 mph - N/A   Scattered Clouds
4:20 AM 73.4 °F - 57.2 °F 57% 30.04 in 6.2 mi NE 16.1 mph - N/A   Scattered Clouds
4:50 AM 71.6 °F - 57.2 °F 60% 30.04 in 6.2 mi NE 15.0 mph - N/A   Scattered Clouds
5:20 AM 71.6 °F - 57.2 °F 60% 30.04 in 6.2 mi NE 13.8 mph - N/A   Scattered Clouds
5:50 AM 71.6 °F - 57.2 °F 60% 30.04 in 6.2 mi NNE 13.8 mph - N/A   Scattered Clouds
6:00 AM 72 °F - 56 °F 47% 30.04 in 6 mi NNE 13.8 mph - -   Partly Cloudy
6:20 AM 73.4 °F - 57.2 °F 57% 30.04 in 6.2 mi NE 11.5 mph - N/A   Mostly Cloudy
6:50 AM 73.4 °F - 57.2 °F 57% 30.04 in 6.2 mi NE 12.7 mph - N/A   Mostly Cloudy
7:20 AM 73.4 °F - 57.2 °F 57% 30.04 in 6.2 mi NNE 13.8 mph - N/A   Scattered Clouds
7:50 AM 73.4 °F - 59.0 °F 61% 30.04 in 6.2 mi NE 15.0 mph 27.6 mph N/A   Scattered Clouds
8:20 AM 73.4 °F - 59.0 °F 61% 30.04 in 6.2 mi NE 13.8 mph - N/A   Scattered Clouds
8:50 AM 73.4 °F - 60.8 °F 65% 30.04 in 6.2 mi NE 15.0 mph 26.5 mph N/A   Mostly Cloudy
9:00 AM 74 °F - 60 °F 52% 30.05 in 6 mi NE 15.0 mph - -   Mostly Cloudy
9:20 AM 75.2 °F - 60.8 °F 61% 30.04 in 6.2 mi NE 16.1 mph - N/A   Mostly Cloudy
9:50 AM 75.2 °F - 60.8 °F 61% 30.04 in 6.2 mi NE 17.3 mph - N/A   Mostly Cloudy
10:20 AM 75.2 °F - 60.8 °F 61% 30.04 in 6.2 mi NE 16.1 mph - N/A   Mostly Cloudy
10:50 AM 75.2 °F - 62.6 °F 65% 30.04 in 6.2 mi NE 17.3 mph - N/A   Mostly Cloudy
11:20 AM 75.2 °F - 62.6 °F 65% 30.04 in 6.2 mi NE 17.3 mph - N/A   Mostly Cloudy
11:50 AM 77.0 °F - 62.6 °F 61% 30.04 in 6.2 mi NE 13.8 mph - N/A   Mostly Cloudy
12:00 PM 76 °F - 63 °F 55% 30.04 in 12 mi NE 13.8 mph - -   Mostly Cloudy
12:20 PM 77.0 °F - 64.4 °F 65% 30.04 in 6.2 mi NE 18.4 mph - N/A   Mostly Cloudy
12:50 PM 75.2 °F - 64.4 °F 69% 30.01 in 6.2 mi NE 15.0 mph - N/A   Mostly Cloudy
1:20 PM 78.8 °F - 64.4 °F 61% 30.01 in 6.2 mi NE 16.1 mph - N/A   Mostly Cloudy
1:50 PM 80.6 °F 81.5 °F 60.8 °F 51% 30.01 in 6.2 mi NE 17.3 mph 28.8 mph N/A   Mostly Cloudy
2:20 PM 82.4 °F 82.9 °F 60.8 °F 48% 30.01 in 6.2 mi ENE 16.1 mph - N/A   Mostly Cloudy
2:50 PM 80.6 °F 81.8 °F 62.6 °F 54% 29.98 in 6.2 mi NNE 23.0 mph - N/A   Mostly Cloudy
3:00 PM 80 °F - 62 °F 44% 29.99 in 6 mi NNE 23.0 mph - -   Mostly Cloudy
3:20 PM 78.8 °F - 62.6 °F 57% 29.98 in 6.2 mi NE 18.4 mph - N/A   Mostly Cloudy
3:50 PM 78.8 °F - 62.6 °F 57% 29.98 in 6.2 mi NNE 17.3 mph - N/A   Mostly Cloudy
4:20 PM 78.8 °F - 60.8 °F 54% 29.98 in 6.2 mi NE 19.6 mph 31.1 mph N/A   Scattered Clouds
4:50 PM 80.6 °F 81.5 °F 60.8 °F 51% 29.98 in 6.2 mi NNE 18.4 mph - N/A   Mostly Cloudy
5:20 PM 78.8 °F - 62.6 °F 57% 29.98 in 6.2 mi NE 20.7 mph - N/A   Mostly Cloudy
5:50 PM 78.8 °F - 60.8 °F 54% 29.98 in 6.2 mi NE 18.4 mph 31.1 mph N/A   Mostly Cloudy
6:00 PM 78 °F - 61 °F 47% 29.98 in 6 mi NE 18.4 mph - -   Mostly Cloudy
6:20 PM 77.0 °F - 59.0 °F 54% 29.98 in 6.2 mi NE 20.7 mph - N/A   Scattered Clouds
6:50 PM 77.0 °F - 59.0 °F 54% 29.98 in 6.2 mi NE 18.4 mph 31.1 mph N/A   Scattered Clouds
7:20 PM 77.0 °F - 57.2 °F 50% 29.98 in 6.2 mi NE 20.7 mph - N/A   Partly Cloudy
7:50 PM 77.0 °F - 59.0 °F 54% 29.98 in 6.2 mi NE 18.4 mph - N/A   Scattered Clouds
8:20 PM 77.0 °F - 60.8 °F 57% 29.98 in 6.2 mi NE 17.3 mph - N/A   Scattered Clouds
8:50 PM 77.0 °F - 62.6 °F 61% 29.98 in 6.2 mi NE 15.0 mph - N/A   Scattered Clouds
9:00 PM 77 °F - 62 °F 49% 29.98 in 6 mi NE 15.0 mph - -   Partly Cloudy
9:20 PM 77.0 °F - 62.6 °F 61% 29.98 in 6.2 mi NE 17.3 mph - N/A   Scattered Clouds
9:50 PM 77.0 °F - 62.6 °F 61% 29.98 in 6.2 mi NE 13.8 mph - N/A   Scattered Clouds
10:20 PM 77.0 °F - 62.6 °F 61% 29.98 in 6.2 mi NE 16.1 mph - N/A   Scattered Clouds
10:50 PM 75.2 °F - 62.6 °F 65% 29.98 in 6.2 mi NE 15.0 mph - N/A   Scattered Clouds
11:20 PM 75.2 °F - 62.6 °F 65% 29.98 in 6.2 mi NE 15.0 mph - N/A   Scattered Clouds
11:50 PM 77.0 °F - 62.6 °F 61% 29.98 in 6.2 mi NE 12.7 mph - N/A   Partly Cloudy